Location: Puketoi
(40.5833°S, 176.0167°E)
Time: 14:44:05
(UTC+00:00)

Cosmos 2369 - Pass Details

Date: 08 February 2023
Orbit: 838 x 857 km, 71.0° (Epoch: 22 March)

Event Time Altitude Azimuth Distance (km) Brightness Sun altitude
Exits shadow 16:46:14 11° 306° (NW) 2,451 5.4 -8.8°
Maximum altitude 16:51:25 38° 239° (WSW) 1,301 4.5 -8.0°
Drops below altitude 10° 16:56:45 10° 171° (S) 2,507 6.7 -7.1°
Sets 16:59:25 0° 163° (SSE) 3,446 7.6 -6.6°
